Showing default

3CAT-5/B (TYVAK-0162), 46293

Orbit data source: Space-Track

3CAT-5/B (TYVAK-0162), 46293 is a payload satellite owned by UPC (ES) in SSO that was launched on Thu, 03 Sep 2020 UTC via a VEGA launch vehicle from the French Guiana (FRGUI). Payload-class satellites include a variety of spacecraft equipped with specific instruments for various scientific and technological missions. These include communications satellites like Starlink; space stations such as the ISS; scientific satellites like the Hubble; Earth observation satellites from companies like Planet Labs, Umbra, and HawkEye 360; GPS; miniature CubeSats for education and research; and military/defense satellites.

Loading next visibility...
Identifier
46293, 2020-061X
Orbit
SSO
Country
Flag of ESES / SPN
Related business
Manufacturer
UPC
Mission
Non-operational Amateur Technology
Bus & Motor
CUBESAT 6U, Unknown motor
Mass
~10 kg wet, ~10 kg dry
Launch date (UTC)
2020-09-03 (5 years ago)
Launch vehicle
VEGA
Launch site
French Guiana (FRGUI)
Object type
Payload
Rocket body
Debris
Shape & HBR
Box, Unknown HBR
Radar Cross Section
0.080 m², Medium (>0.1 m² and < 1m²)

Expand to show TLE details & history
Last TLE update: 12 hours ago

TLE from 12 hours ago
0 3CAT-5/B (TYVAK-0162)
1 46293U 20061X   26062.11623836  .00021096  00000-0  46893-3 0  9990
2 46293  97.2551 126.1157 0003373 129.3081 230.8466 15.43688679304674
Epoch: 2026-03-03T02:47Z
TLE epoch observation values (Epoch: 2026-03-03T02:47:22.994Z)
Latitude
-0.0001°
Longitude
-76.63001°
Altitude
439.812 km
Speed
7.647 km/s
True Right ascension
08h 24m 27s
True Declination
0° 00' 00"
Sunlit
Object was in full shadow at epoch
Visualization orbit readout
Latitude
Unknown
Longitude
Unknown
Altitude
Unknown
Speed
Unknown
Apparent Right ascension
Unknown
Apparent Declination
Unknown
Sunlit
N/A
Visualization observer readout
Local Sidereal Time
18:03:12
Azimuth
Unknown
Elevation
Unknown
Doppler factor
Unknown
Orbital elements
Apogee altitude
434.459 km
Perigee altitude
429.865 km
Semi-major axis
6,810.299 km
Eccentricity
0.00034
Inclination
97.2551°
RAAN
126.1157°
Arg. of periapsis
129.3081°
True anomaly
230.81664°
Mean anomaly
230.8466°
Eccentric anomaly
230.83162°
Mean motion
3.86184 °/min
Orbital period
93.22 mins
BSTAR
0.00046893
Loading maneuver chart data...
Computing Atmospheric mass density...
Loading historical data...
Loading historical data...
Loading historical data...
Loading historical data...
Loading historical data...
Loading historical data...
Loading historical data...

Documentation

Showing up to 5 results
|